Weather History for Hatteras, NC

Change the Weather History Date:

Thursday, November 24, 2011

  Actual Average Record
Temperature  
Mean Temperature 48 °F 55 °F  
Max Temperature 55 °F 62 °F 77 °F (1983)
Min Temperature 41 °F 49 °F 29 °F (1989)
Degree Days  
Heating Degree Days 17 10  
Month to date heating degree days 151 176  
Since 1 July heating degree days 210 251  
Cooling Degree Days 0 0  
Month to date cooling degree days 4 22  
Year to date cooling degree days 2373 1712  
Moisture  
Dew Point 40 °F    
Average Humidity 70    
Maximum Humidity 89    
Minimum Humidity 50    
Precipitation  
Precipitation 0.00 in 0.15 in 1.11 in (1975)
Month to date precipitation 5.58 4.06  
Year to date precipitation 59.65 52.88  
Snow  
Snow 0.00 in - - ()
Month to date snowfall 0.0  
Since 1 July snowfall 0.0  
Snow Depth 0.00 in    
Sea Level Pressure  
Sea Level Pressure 30.21 in    
Wind  
Wind Speed 8 mph (North)    
Max Wind Speed 20 mph    
Max Gust Speed 36 mph    
Visibility 10 miles    
Events      
T = Trace of Precipitation, MM = Missing Value Source: NWS Daily Summary

Daily Weather History Graph

Daily Weather History Graph

Search for Another Location

Airport:

Trip Planner

Search our weather history database for the weather conditions in past years. The results will help you decide how hot, cold, wet, or windy it might be!

Date:

Astronomy

Nov. 24, 2011 Rise Set
Actual Time 6:45 AM EST 4:52 PM EST
Civil Twilight 6:18 AM EST 5:19 PM EST
Nautical Twilight 5:47 AM EST 5:50 PM EST
Astronomical Twilight 5:16 AM EST 6:21 PM EST
Moon 6:00 AM EST (11/24) 4:21 PM EST (11/24)
Length of Visible Light 11h 01m
Length of Day
10h 06m
Waning Crescent, 0% of the Moon is Illuminated
Nov 24
Waning Crescent
Nov 25
New
Dec 2
First Quarter
Dec 10
Full
Dec 17
Last Quarter

Hourly Weather History & Observations

Time (EST) Temp. Dew Point Humidity Pressure Visibility Wind Dir Wind Speed Gust Speed Precip Events Conditions
12:51 AM 51.1 °F 42.1 °F 71% 30.00 in 10.0 mi NNW 13.8 mph 28.8 mph N/A   Overcast
1:51 AM 51.1 °F 41.0 °F 68% 30.03 in 10.0 mi North 10.4 mph 25.3 mph N/A   Overcast
2:51 AM 50.0 °F 41.0 °F 71% 30.05 in 10.0 mi North 10.4 mph 29.9 mph N/A   Overcast
3:07 AM 50.0 °F 41.0 °F 71% 30.05 in 10.0 mi North 9.2 mph 24.2 mph N/A   Overcast
3:51 AM 50.0 °F 41.0 °F 71% 30.07 in 10.0 mi North 11.5 mph 26.5 mph N/A   Overcast
4:17 AM 50.0 °F 41.0 °F 71% 30.08 in 10.0 mi North 15.0 mph 27.6 mph N/A   Overcast
4:51 AM 48.9 °F 39.9 °F 71% 30.10 in 10.0 mi NNE 15.0 mph 31.1 mph N/A   Overcast
5:51 AM 48.9 °F 39.0 °F 69% 30.12 in 10.0 mi NNE 17.3 mph 31.1 mph N/A   Overcast
6:04 AM 48.2 °F 39.2 °F 71% 30.13 in 10.0 mi NNE 15.0 mph 31.1 mph N/A   Overcast
6:51 AM 48.0 °F 39.0 °F 71% 30.14 in 10.0 mi North 15.0 mph 27.6 mph N/A   Mostly Cloudy
7:51 AM 48.9 °F 41.0 °F 74% 30.19 in 10.0 mi NNE 11.5 mph 27.6 mph N/A   Overcast
8:51 AM 50.0 °F 39.9 °F 68% 30.22 in 10.0 mi NNE 12.7 mph 23.0 mph N/A   Mostly Cloudy
9:51 AM 52.0 °F 42.1 °F 69% 30.25 in 10.0 mi NNE 10.4 mph 23.0 mph N/A   Mostly Cloudy
10:51 AM 52.0 °F 42.1 °F 69% 30.26 in 10.0 mi NNE 11.5 mph 21.9 mph N/A   Mostly Cloudy
11:13 AM 53.6 °F 42.8 °F 67% 30.26 in 10.0 mi North 11.5 mph 23.0 mph N/A   Scattered Clouds
11:51 AM 53.1 °F 41.0 °F 64% 30.25 in 10.0 mi North 8.1 mph 24.2 mph N/A   Partly Cloudy
12:51 PM 54.0 °F 39.9 °F 59% 30.25 in 10.0 mi NNE 10.4 mph 23.0 mph N/A   Clear
1:51 PM 55.0 °F 42.1 °F 62% 30.25 in 10.0 mi NNE 9.2 mph 19.6 mph N/A   Clear
2:51 PM 55.0 °F 39.9 °F 57% 30.27 in 10.0 mi North 8.1 mph 17.3 mph N/A   Clear
3:51 PM 54.0 °F 41.0 °F 62% 30.28 in 10.0 mi Variable 6.9 mph - N/A   Clear
4:51 PM 53.1 °F 41.0 °F 64% 30.29 in 10.0 mi NNE 8.1 mph - N/A   Clear
5:51 PM 53.1 °F 41.0 °F 64% 30.32 in 10.0 mi Variable 5.8 mph - N/A   Clear
6:51 PM 53.1 °F 35.1 °F 50% 30.33 in 10.0 mi Variable 6.9 mph - N/A   Clear
7:51 PM 52.0 °F 39.0 °F 61% 30.33 in 10.0 mi Calm Calm - N/A   Clear
8:51 PM 48.9 °F 39.0 °F 69% 30.34 in 10.0 mi Calm Calm - N/A   Clear
9:51 PM 44.1 °F 37.9 °F 79% 30.34 in 10.0 mi Calm Calm - N/A   Clear
10:51 PM 42.1 °F 39.0 °F 89% 30.35 in 10.0 mi Calm Calm - N/A   Clear
11:51 PM 42.1 °F 39.0 °F 89% 30.33 in 10.0 mi Calm Calm - N/A   Clear